Date String (YYYY-MM-DD hh:mm:ss) UTC,Instrument flags,Ambient pressure (hPa),Sample flow (lpm),Bypass flow (lpm),Sample temperature (°C),Ambient temperature (°C),ASC tube jacket temperature (°C),LED temperature (°C),Box temperature (°C),Sample RH (%),Span deviation,Mass concentration (μg/m³),Mass concentration (μg/m³),Mass concentration (μg/m³)
DateTimeUTC,F1_M11,P_M11,Q1_M11,Q2_M11,T1_M11,T2_M11,T3_M11,T4_M11,T5_M11,U1_M11,ZSPAN_M11,X0_M11,X2_M11,X1_M11
2022-07-06 03:00:00,,0826.4,5.01,0.00,29.6,28.3,00.0,38.3,31.5,23.2,0000.0,0001.94,0001.18,0000.87
2022-07-06 03:01:00,,0826.5,5.00,0.00,29.6,28.4,00.0,38.3,31.5,23.1,0000.0,0001.93,0001.17,0000.87
2022-07-06 03:02:00,,0826.5,5.01,0.00,29.6,28.5,00.0,38.3,31.6,23.0,0000.0,0001.76,0001.13,0000.86
2022-07-06 03:03:00,,0826.5,5.00,0.00,29.7,28.5,00.0,38.4,31.6,22.8,0000.0,0001.67,0001.11,0000.87
2022-07-06 03:04:00,,0826.5,5.00,0.00,29.7,28.0,00.0,38.3,31.6,22.7,0000.0,0001.70,0001.14,0000.87
2022-07-06 03:05:00,,0826.5,5.00,0.00,29.7,27.5,00.0,38.3,31.5,22.8,0000.0,0001.71,0001.15,0000.88
2022-07-06 03:06:00,,0826.5,4.99,0.00,29.6,27.5,00.0,38.3,31.4,22.9,0000.0,0001.73,0001.14,0000.88
2022-07-06 03:07:00,,0826.4,4.99,0.00,29.6,27.5,00.0,38.3,31.3,23.1,0000.0,0001.70,0001.13,0000.89
2022-07-06 03:08:00,,0826.5,5.00,0.00,29.5,27.6,00.0,38.3,31.3,23.3,0000.0,0001.74,0001.10,0000.90
2022-07-06 03:09:00,,0826.4,5.01,0.00,29.5,27.8,00.0,38.3,31.4,23.5,0000.0,0001.78,0001.11,0000.90
2022-07-06 03:10:00,,0826.4,5.00,0.00,29.5,27.9,00.0,38.3,31.4,23.6,0000.0,0001.81,0001.12,0000.91
2022-07-06 03:11:00,,0826.4,5.01,0.00,29.5,28.0,00.0,38.3,31.4,23.7,0000.0,0001.79,0001.13,0000.92
2022-07-06 03:12:00,,0826.4,5.00,0.00,29.5,28.1,00.0,38.3,31.4,23.8,0000.0,0001.77,0001.16,0000.93
2022-07-06 03:13:00,,0826.5,5.00,0.00,29.6,28.2,00.0,38.3,31.5,23.8,0000.0,0001.95,0001.20,0000.95
2022-07-06 03:14:00,,0826.5,5.00,0.00,29.6,28.3,00.0,38.3,31.5,23.9,0000.0,0001.96,0001.20,0000.96
2022-07-06 03:15:00,,0826.5,5.00,0.00,29.6,28.4,00.0,38.3,31.6,23.9,0000.0,0002.00,0001.21,0000.96
2022-07-06 03:16:00,,0826.5,5.00,0.00,29.6,28.5,00.0,38.4,31.6,24.1,0000.0,0002.09,0001.24,0000.97
2022-07-06 03:17:00,,0826.5,5.01,0.00,29.7,28.6,00.0,38.4,31.7,24.3,0000.0,0002.18,0001.26,0000.99
2022-07-06 03:18:00,,0826.5,5.00,0.00,29.7,28.3,00.0,38.3,31.7,24.3,0000.0,0002.22,0001.28,0001.00
2022-07-06 03:19:00,,0826.4,5.01,0.00,29.7,27.4,00.0,38.3,31.5,24.5,0000.0,0002.27,0001.34,0001.02
2022-07-06 03:20:00,,0826.5,4.99,0.00,29.6,26.9,00.0,38.2,31.4,24.8,0000.0,0002.35,0001.38,0001.04
2022-07-06 03:21:00,,0826.5,4.99,0.00,29.5,26.9,00.0,38.2,31.3,25.2,0000.0,0002.52,0001.43,0001.06
2022-07-06 03:22:00,,0826.5,4.99,0.00,29.5,27.0,00.0,38.2,31.2,25.7,0000.0,0003.12,0001.48,0001.08
2022-07-06 03:23:00,,0826.4,5.00,0.00,29.4,27.1,00.0,38.2,31.2,25.8,0000.0,0003.32,0001.47,0001.10
2022-07-06 03:24:00,,0826.5,5.00,0.00,29.4,27.3,00.0,38.2,31.2,26.0,0000.0,0003.93,0001.50,0001.11
2022-07-06 03:25:00,,0826.5,5.00,0.00,29.4,27.5,00.0,38.2,31.2,26.1,0000.0,0004.02,0001.52,0001.13
2022-07-06 03:26:00,,0826.5,5.00,0.00,29.4,27.7,00.0,38.2,31.2,26.2,0000.0,0004.14,0001.58,0001.16
2022-07-06 03:27:00,,0826.5,5.00,0.00,29.4,27.8,00.0,38.2,31.3,26.2,0000.0,0004.15,0001.60,0001.17
2022-07-06 03:28:00,,0826.5,5.00,0.00,29.4,27.9,00.0,38.2,31.3,26.2,0000.0,0004.08,0001.61,0001.18
2022-07-06 03:29:00,,0826.5,5.00,0.00,29.4,28.0,00.0,38.2,31.3,26.3,0000.0,0004.06,0001.63,0001.19
2022-07-06 03:30:00,,0826.5,5.00,0.00,29.4,28.2,00.0,38.2,31.4,26.2,0000.0,0004.26,0001.65,0001.21
2022-07-06 03:31:00,,0826.5,5.00,0.00,29.5,28.2,00.0,38.2,31.4,26.3,0000.0,0004.59,0001.64,0001.23
2022-07-06 03:32:00,,0826.5,5.00,0.00,29.5,28.3,00.0,38.2,31.4,26.2,0000.0,0004.60,0001.67,0001.25
2022-07-06 03:33:00,,0826.5,4.99,0.00,29.5,28.4,00.0,38.3,31.5,26.3,0000.0,0003.98,0001.66,0001.27
2022-07-06 03:34:00,,0826.5,4.99,0.00,29.6,28.5,00.0,38.3,31.5,26.3,0000.0,0003.74,0001.67,0001.29
2022-07-06 03:35:00,,0826.5,4.99,0.00,29.6,28.5,00.0,38.3,31.5,26.3,0000.0,0003.08,0001.68,0001.31
2022-07-06 03:36:00,,0826.6,5.00,0.00,29.6,28.6,00.0,38.3,31.6,26.3,0000.0,0003.05,0001.71,0001.33
2022-07-06 03:37:00,,0826.5,5.00,0.00,29.7,28.4,00.0,38.3,31.6,26.3,0000.0,0003.01,0001.71,0001.34
2022-07-06 03:38:00,,0826.5,5.02,0.00,29.6,27.7,00.0,38.3,31.5,26.3,0000.0,0003.09,0001.75,0001.37
2022-07-06 03:39:00,,0826.5,5.00,0.00,29.6,27.5,00.0,38.2,31.5,26.4,0000.0,0003.22,0001.81,0001.39
2022-07-06 03:40:00,,0826.6,5.00,0.00,29.6,27.5,00.0,38.3,31.4,26.5,0000.0,0003.36,0001.87,0001.40
2022-07-06 03:41:00,,0826.6,5.00,0.00,29.5,27.5,00.0,38.3,31.3,26.5,0000.0,0003.28,0001.89,0001.41
2022-07-06 03:42:00,,0826.7,5.00,0.00,29.5,27.7,00.0,38.2,31.3,26.7,0000.0,0002.93,0001.93,0001.41
2022-07-06 03:43:00,,0826.7,4.99,0.00,29.5,27.8,00.0,38.3,31.4,26.8,0000.0,0002.98,0001.96,0001.42
2022-07-06 03:44:00,,0826.7,5.00,0.00,29.5,27.9,00.0,38.3,31.4,27.0,0000.0,0003.01,0001.97,0001.41
2022-07-06 03:45:00,,0826.7,4.99,0.00,29.5,28.1,00.0,38.3,31.4,26.9,0000.0,0003.03,0001.97,0001.41
2022-07-06 03:46:00,,0826.7,5.00,0.00,29.5,28.2,00.0,38.3,31.5,27.0,0000.0,0003.06,0001.99,0001.42
2022-07-06 03:47:00,,0826.7,5.00,0.00,29.6,28.3,00.0,38.3,31.5,27.1,0000.0,0003.14,0002.00,0001.42
2022-07-06 03:48:00,,0826.7,5.00,0.00,29.6,28.4,00.0,38.3,31.5,27.2,0000.0,0004.00,0002.04,0001.44
2022-07-06 03:49:00,,0826.8,5.00,0.00,29.6,28.5,00.0,38.3,31.6,27.4,0000.0,0004.18,0002.03,0001.43
2022-07-06 03:50:00,,0826.9,5.00,0.00,29.6,28.6,00.0,38.3,31.6,27.2,0000.0,0004.09,0002.00,0001.43
2022-07-06 03:51:00,,0826.8,5.00,0.00,29.7,28.6,00.0,38.4,31.7,27.1,0000.0,0003.94,0001.95,0001.45
2022-07-06 03:52:00,,0826.9,5.01,0.00,29.7,28.0,00.0,38.3,31.6,27.0,0000.0,0003.84,0001.92,0001.47
2022-07-06 03:53:00,,0827.0,5.00,0.00,29.6,27.2,00.0,38.2,31.4,26.9,0000.0,0003.75,0001.89,0001.48
2022-07-06 03:54:00,,0826.9,4.98,0.00,29.6,26.9,00.0,38.2,31.3,26.8,0000.0,0003.87,0001.92,0001.49
2022-07-06 03:55:00,,0826.9,5.00,0.00,29.5,26.9,00.0,38.2,31.2,27.0,0000.0,0003.87,0001.93,0001.49
2022-07-06 03:56:00,,0827.1,5.00,0.00,29.4,27.0,00.0,38.2,31.2,27.0,0000.0,0003.86,0001.92,0001.49
2022-07-06 03:57:00,,0827.0,5.00,0.00,29.4,27.2,00.0,38.2,31.2,27.1,0000.0,0003.83,0001.91,0001.48
2022-07-06 03:58:00,,0827.1,4.99,0.00,29.4,27.4,00.0,38.2,31.2,27.1,0000.0,0003.78,0001.92,0001.49
2022-07-06 03:59:00,,0827.0,4.99,0.00,29.4,27.5,00.0,38.2,31.2,27.0,0000.0,0002.84,0001.85,0001.48
